Home > Time Zones > World Clock > Weather > U.S.A. > Waco > Past weeks

Flag for U.S.A. Weather past 2 weeks in Waco, Texas, U.S.A.

41 °F

Light rain. Mostly cloudy.

Feels Like: 35 °F
Forecast: 42 / 45 °F
Wind: 9 mph from North

Location: Waco Regional Airport

Current Time: Nov 28, 2015 at 8:17:34 PM

Latest Report: Nov 28, 2015 at 6:51 PM

Visibility: 10 mi

Pressure: 30.22 "Hg

Humidity: 93%

Dew point: 39 °F

Location of WacoLocation

Historic Weather in Waco — Graph


Waco temperature yesterday

Maximum temperature yesterday: 71 °F (at 12:51 AM)
Minimum temperature yesterday: 40 °F (at 11:57 PM)
Average temperature yesterday: 52 °F

Past Weeks' High & Low Weather Summary

High75 °F (Nov 25, 12:51 PM)97% (Nov 16, 7:51 AM)30.39 "Hg (Nov 16, 7:51 AM)
Low31 °F (Nov 22, 5:51 AM)29% (Nov 23, 1:51 PM)29.50 "Hg (Nov 17, 3:51 AM)
Average56 °F74%30.08 "Hg
* Reported Nov 13 6:51 PM — Nov 28 6:51 PM, Waco, Weather by CustomWeather, © 2015

Note: Actual official high and low records may vary slightly from our data, if they occured in-between our weather recording intervals... More about our weather records


Waco weather history for previous 24 hours

Time TempWeatherWind HumidityBarometerVisibility
6:51 PM
Sat, Nov 28
41 °FLight rain. Mostly cloudy.9 mph93%30.22 "Hg10 mi
5:51 PM41 °FHeavy rain. Fog.9 mph89%30.23 "Hg3 mi
4:51 PM41 °FHeavy rain. Fog.9 mph93%30.22 "Hg2 mi
3:51 PM40 °FFog.10 mph93%30.21 "Hg6 mi
2:51 PM40 °FLight rain. Low clouds.10 mph93%30.21 "Hg7 mi
2:02 PM40 °FLight rain. Fog.10 mph93%30.21 "Hg3 mi
12:51 PM40 °FLight rain. Low clouds.12 mph93%30.24 "Hg7 mi
11:51 AM39 °FLight rain. Low clouds.13 mph93%30.25 "Hg9 mi
10:51 AM39 °FLight rain. Fog.10 mph93%30.27 "Hg2 mi
9:51 AM39 °FHeavy rain. Fog.12 mph89%30.28 "Hg2 mi
8:51 AM39 °FRain. Fog.12 mph93%30.25 "Hg3 mi
7:51 AM39 °FLight rain. Fog.9 mph93%30.24 "Hg3 mi
7:03 AM39 °FOvercast.13 mph93%30.23 "Hg10 mi
6:51 AM39 °FOvercast.12 mph89%30.24 "Hg10 mi
5:51 AM39 °FLight rain. Mostly cloudy.9 mph93%30.22 "Hg10 mi
4:58 AM38 °FHeavy rain. Fog.12 mph93%30.20 "Hg3 mi
3:51 AM39 °FLight rain. Overcast.13 mph89%30.21 "Hg10 mi
2:51 AM39 °FLight rain. Mostly cloudy.15 mph89%30.21 "Hg10 mi
1:51 AM39 °FHeavy rain. Fog.17 mph93%30.22 "Hg4 mi
11:57 PM
Fri, Nov 27
40 °FRain. Fog.13 mph89%30.26 "Hg6 mi
10:51 PM41 °FLight rain. Mostly cloudy.14 mph89%30.26 "Hg10 mi
10:00 PM41 °FLight rain. Overcast.13 mph93%30.23 "Hg9 mi
8:51 PM41 °FLow clouds.15 mph89%30.24 "Hg9 mi
Weather by CustomWeather, © 2015

See weather overviewHow to use our weather pages